| time (UTC) | temp C | wind direction | speed KPH | gust KPH | rain 1hr cm | rain 24hr cm | rain mn cm | humidity % | barometer mb |
| 20260509092552 | 15 | 80 | 0.0 | 1.6 | 0.00 | 0.00 | 0.00 | 78 | 1024.8 |
| 20260509092049 | 15 | 80 | 0.0 | 3.2 | 0.00 | 0.00 | 0.00 | 78 | 1024.8 |
| 20260509091548 | 15 | 80 | 0.0 | 3.2 | 0.00 | 0.00 | 0.00 | 78 | 1024.7 |
| 20260509091051 | 15 | 80 | 0.0 | 3.2 | 0.00 | 0.00 | 0.00 | 78 | 1024.6 |
| 20260509090548 | 15 | 80 | 0.0 | 0.0 | 0.00 | 0.00 | 0.00 | 78 | 1024.6 |
| 20260509090054 | 15 | 80 | 0.0 | 0.0 | 0.00 | 0.00 | 0.00 | 78 | 1024.6 |
| 20260509085547 | 15 | 80 | 0.0 | 3.2 | 0.00 | 0.00 | 0.00 | 78 | 1024.5 |
| 20260509085048 | 15 | 80 | 0.0 | 3.2 | 0.00 | 0.00 | 0.00 | 78 | 1024.5 |
| 20260509084548 | 15 | 80 | 0.0 | 1.6 | 0.00 | 0.00 | 0.00 | 78 | 1024.4 |
| 20260509084044 | 15 | 80 | 0.0 | 0.0 | 0.00 | 0.00 | 0.00 | 78 | 1024.3 |
| 20260509083543 | 15 | 80 | 0.0 | 0.0 | 0.00 | 0.00 | 0.00 | 77 | 1024.2 |
| 20260509083051 | 15 | 80 | 0.0 | 0.0 | 0.00 | 0.00 | 0.00 | 77 | 1024.2 |
| 20260509082543 | 15 | 80 | 0.0 | 0.0 | 0.00 | 0.00 | 0.00 | 76 | 1024.2 |
| 20260509082044 | 15 | 80 | 0.0 | 0.0 | 0.00 | 0.00 | 0.00 | 76 | 1024.1 |
| 20260509081544 | 15 | 80 | 0.0 | 0.0 | 0.00 | 0.00 | 0.00 | 76 | 1024.0 |
| 20260509081044 | 15 | 80 | 0.0 | 0.0 | 0.00 | 0.00 | 0.00 | 75 | 1024.0 |
| 20260509080543 | 16 | 80 | 0.0 | 1.6 | 0.00 | 0.00 | 0.00 | 75 | 1023.9 |
| 20260509080043 | 16 | 80 | 0.0 | 1.6 | 0.00 | 0.00 | 0.00 | 75 | 1023.9 |
| 20260509075545 | 16 | 80 | 0.0 | 1.6 | 0.00 | 0.00 | 0.00 | 75 | 1023.8 |
| 20260509075043 | 16 | 80 | 0.0 | 3.2 | 0.00 | 0.00 | 0.00 | 74 | 1023.7 |
| 20260509074546 | 16 | 74 | 0.0 | 3.2 | 0.00 | 0.00 | 0.00 | 74 | 1023.7 |
| 20260509074042 | 16 | 115 | 0.0 | 1.6 | 0.00 | 0.00 | 0.00 | 74 | 1023.6 |
| 20260509073542 | 16 | 115 | 0.0 | 3.2 | 0.00 | 0.00 | 0.00 | 74 | 1023.6 |
| 20260509073043 | 16 | 115 | 0.0 | 4.8 | 0.00 | 0.00 | 0.00 | 73 | 1023.5 |
| 20260509072544 | 16 | 65 | 0.0 | 3.2 | 0.00 | 0.00 | 0.00 | 73 | 1023.4 |
| 20260509072045 | 16 | 65 | 0.0 | 3.2 | 0.00 | 0.00 | 0.00 | 72 | 1023.4 |
| 20260509071544 | 17 | 65 | 0.0 | 6.4 | 0.00 | 0.00 | 0.00 | 72 | 1023.4 |
| 20260509071041 | 17 | 65 | 1.6 | 6.4 | 0.00 | 0.00 | 0.00 | 71 | 1023.3 |
| 20260509070542 | 17 | 68 | 1.6 | 8.0 | 0.00 | 0.00 | 0.00 | 71 | 1023.2 |
| 20260509070044 | 17 | 71 | 0.0 | 8.0 | 0.00 | 0.00 | 0.00 | 70 | 1023.1 |
| 20260509065541 | 17 | 71 | 0.0 | 4.8 | 0.00 | 0.00 | 0.00 | 70 | 1023.1 |
| 20260509065041 | 17 | 74 | 0.0 | 6.4 | 0.00 | 0.00 | 0.00 | 69 | 1023.0 |
| 20260509064541 | 17 | 94 | 1.6 | 6.4 | 0.00 | 0.00 | 0.00 | 68 | 1023.0 |
| 20260509064044 | 18 | 105 | 1.6 | 4.8 | 0.00 | 0.00 | 0.00 | 68 | 1022.9 |
| 20260509063540 | 18 | 60 | 1.6 | 12.9 | 0.00 | 0.00 | 0.00 | 67 | 1022.9 |
| 20260509063040 | 18 | 104 | 1.6 | 12.9 | 0.00 | 0.00 | 0.00 | 67 | 1022.9 |
| 20260509062540 | 18 | 63 | 1.6 | 11.3 | 0.00 | 0.00 | 0.00 | 67 | 1022.8 |
| 20260509062039 | 18 | 97 | 1.6 | 11.3 | 0.00 | 0.00 | 0.00 | 67 | 1022.8 |
| 20260509061543 | 18 | 132 | 1.6 | 6.4 | 0.00 | 0.00 | 0.00 | 67 | 1022.8 |
| 20260509061039 | 18 | 44 | 1.6 | 9.7 | 0.00 | 0.00 | 0.00 | 66 | 1022.7 |
| 20260509060539 | 18 | 128 | 1.6 | 9.7 | 0.00 | 0.00 | 0.00 | 65 | 1022.7 |
| 20260509060040 | 18 | 107 | 0.0 | 12.9 | 0.00 | 0.00 | 0.00 | 66 | 1022.7 |
| 20260509055539 | 18 | 120 | 1.6 | 12.9 | 0.00 | 0.00 | 0.00 | 65 | 1022.6 |
| 20260509055041 | 18 | 103 | 3.2 | 11.3 | 0.00 | 0.00 | 0.00 | 65 | 1022.5 |
| 20260509054556 | 18 | 144 | 1.6 | 11.3 | 0.00 | 0.00 | 0.00 | 65 | 1022.5 |
| 20260509054037 | 18 | 81 | 1.6 | 14.5 | 0.00 | 0.00 | 0.00 | 63 | 1022.5 |
| 20260509053538 | 18 | 71 | 3.2 | 14.5 | 0.00 | 0.00 | 0.00 | 62 | 1022.5 |
| 20260509053038 | 18 | 82 | 4.8 | 12.9 | 0.00 | 0.00 | 0.00 | 63 | 1022.4 |
| 20260509052538 | 18 | 94 | 3.2 | 11.3 | 0.00 | 0.00 | 0.00 | 62 | 1022.4 |
| 20260509052037 | 19 | 89 | 1.6 | 16.1 | 0.00 | 0.00 | 0.00 | 63 | 1022.4 |
| 20260509051539 | 19 | 154 | 4.8 | 16.1 | 0.00 | 0.00 | 0.00 | 61 | 1022.4 |
| 20260509051042 | 19 | 37 | 3.2 | 11.3 | 0.00 | 0.00 | 0.00 | 62 | 1022.4 |
| 20260509050538 | 19 | 65 | 3.2 | 14.5 | 0.00 | 0.00 | 0.00 | 61 | 1022.3 |
| 20260509050047 | 19 | 59 | 4.8 | 14.5 | 0.00 | 0.00 | 0.00 | 61 | 1022.3 |
| 20260509045536 | 19 | 99 | 4.8 | 16.1 | 0.00 | 0.00 | 0.00 | 61 | 1022.4 |
| 20260509045037 | 19 | 99 | 4.8 | 16.1 | 0.00 | 0.00 | 0.00 | 60 | 1022.4 |
| 20260509044535 | 19 | 93 | 3.2 | 14.5 | 0.00 | 0.00 | 0.00 | 61 | 1022.4 |
| 20260509044036 | 19 | 91 | 3.2 | 14.5 | 0.00 | 0.00 | 0.00 | 61 | 1022.3 |
| 20260509043536 | 19 | 84 | 1.6 | 14.5 | 0.00 | 0.00 | 0.00 | 60 | 1022.3 |
| 20260509043037 | 20 | 86 | 4.8 | 11.3 | 0.00 | 0.00 | 0.00 | 60 | 1022.3 |
| 20260509042535 | 19 | 82 | 3.2 | 12.9 | 0.00 | 0.00 | 0.00 | 60 | 1022.2 |
| 20260509042038 | 19 | 86 | 4.8 | 12.9 | 0.00 | 0.00 | 0.00 | 60 | 1022.2 |
| 20260509041535 | 19 | 74 | 4.8 | 12.9 | 0.00 | 0.00 | 0.00 | 59 | 1022.2 |
| 20260509041035 | 20 | 96 | 3.2 | 11.3 | 0.00 | 0.00 | 0.00 | 59 | 1022.2 |
| 20260509040536 | 20 | 87 | 3.2 | 11.3 | 0.00 | 0.00 | 0.00 | 59 | 1022.2 |
| 20260509040034 | 20 | 66 | 3.2 | 8.0 | 0.00 | 0.00 | 0.00 | 60 | 1022.2 |
| 20260509035534 | 20 | 132 | 3.2 | 14.5 | 0.00 | 0.00 | 0.00 | 60 | 1022.2 |
| 20260509035036 | 20 | 82 | 4.8 | 17.7 | 0.00 | 0.00 | 0.00 | 59 | 1022.3 |
| 20260509034533 | 20 | 107 | 3.2 | 17.7 | 0.00 | 0.00 | 0.00 | 59 | 1022.2 |
| 20260509034033 | 20 | 76 | 3.2 | 11.3 | 0.00 | 0.00 | 0.00 | 59 | 1022.2 |
| 20260509033535 | 20 | 65 | 3.2 | 14.5 | 0.00 | 0.00 | 0.00 | 58 | 1022.3 |
| 20260509033032 | 20 | 63 | 4.8 | 14.5 | 0.00 | 0.00 | 0.00 | 56 | 1022.3 |
| 20260509032533 | 20 | 80 | 3.2 | 12.9 | 0.00 | 0.00 | 0.00 | 55 | 1022.3 |
| 20260509032032 | 20 | 88 | 1.6 | 16.1 | 0.00 | 0.00 | 0.00 | 56 | 1022.4 |
| 20260509031535 | 20 | 88 | 1.6 | 12.9 | 0.00 | 0.00 | 0.00 | 55 | 1022.4 |
| 20260509031032 | 20 | 124 | 3.2 | 9.7 | 0.00 | 0.00 | 0.00 | 55 | 1022.4 |
| 20260509030531 | 20 | 86 | 3.2 | 11.3 | 0.00 | 0.00 | 0.00 | 55 | 1022.4 |
| 20260509030037 | 21 | 40 | 3.2 | 9.7 | 0.00 | 0.00 | 0.00 | 52 | 1022.6 |
| 20260509025630 | 21 | 146 | 3.2 | 9.7 | 0.00 | 0.00 | 0.00 | 52 | 1022.6 |
| 20260509025030 | 20 | 92 | 3.2 | 9.7 | 0.00 | 0.00 | 0.00 | 50 | 1022.6 |
| 20260509024536 | 20 | 178 | 1.6 | 6.4 | 0.00 | 0.00 | 0.00 | 52 | 1022.7 |
| 20260509024027 | 20 | 99 | 1.6 | 11.3 | 0.00 | 0.00 | 0.00 | 53 | 1022.7 |
| 20260509023527 | 20 | 76 | 3.2 | 11.3 | 0.00 | 0.00 | 0.00 | 53 | 1022.8 |
| 20260509023026 | 20 | 146 | 3.2 | 11.3 | 0.00 | 0.00 | 0.00 | 51 | 1022.9 |
| 20260509022525 | 20 | 127 | 1.6 | 11.3 | 0.00 | 0.00 | 0.00 | 52 | 1023.0 |
| 20260509022024 | 20 | 137 | 3.2 | 12.9 | 0.00 | 0.00 | 0.00 | 52 | 1023.0 |
| 20260509021523 | 20 | 107 | 3.2 | 12.9 | 0.00 | 0.00 | 0.00 | 53 | 1023.1 |
| 20260509021022 | 20 | 144 | 1.6 | 11.3 | 0.00 | 0.00 | 0.00 | 53 | 1023.2 |
| 20260509020521 | 20 | 103 | 3.2 | 11.3 | 0.00 | 0.00 | 0.00 | 53 | 1023.2 |
| 20260509020020 | 20 | 217 | 3.2 | 9.7 | 0.00 | 0.00 | 0.00 | 53 | 1023.3 |
| 20260509015519 | 20 | 218 | 1.6 | 11.3 | 0.00 | 0.00 | 0.00 | 54 | 1023.3 |
| 20260509015018 | 19 | 157 | 4.8 | 11.3 | 0.00 | 0.00 | 0.00 | 55 | 1023.4 |
| 20260509014518 | 19 | 257 | 3.2 | 11.3 | 0.00 | 0.00 | 0.00 | 56 | 1023.4 |
| 20260509014016 | 19 | 185 | 4.8 | 12.9 | 0.00 | 0.00 | 0.00 | 55 | 1023.5 |
| 20260509013516 | 19 | 199 | 6.4 | 12.9 | 0.00 | 0.00 | 0.00 | 55 | 1023.6 |
| 20260509013023 | 19 | 182 | 3.2 | 11.3 | 0.00 | 0.00 | 0.00 | 56 | 1023.6 |
| 20260509012515 | 19 | 153 | 1.6 | 14.5 | 0.00 | 0.00 | 0.00 | 56 | 1023.7 |
| 20260509012013 | 18 | 215 | 4.8 | 14.5 | 0.00 | 0.00 | 0.00 | 55 | 1023.7 |
| 20260509011513 | 19 | 177 | 4.8 | 14.5 | 0.00 | 0.00 | 0.00 | 56 | 1023.8 |
| 20260509011016 | 18 | 123 | 3.2 | 14.5 | 0.00 | 0.00 | 0.00 | 57 | 1023.7 |
| 20260509010509 | 18 | 192 | 4.8 | 12.9 | 0.00 | 0.00 | 0.00 | 57 | 1023.8 |
| 20260509010014 | 18 | 145 | 3.2 | 11.3 | 0.00 | 0.00 | 0.00 | 58 | 1023.8 |
| 20260509005509 | 18 | 143 | 3.2 | 11.3 | 0.00 | 0.00 | 0.00 | 57 | 1024.0 |
| 20260509005006 | 18 | 165 | 3.2 | 11.3 | 0.00 | 0.00 | 0.00 | 58 | 1024.0 |
| 20260509004505 | 18 | 209 | 4.8 | 11.3 | 0.00 | 0.00 | 0.00 | 59 | 1024.0 |
| 20260509004004 | 18 | 216 | 3.2 | 12.9 | 0.00 | 0.00 | 0.00 | 59 | 1024.1 |
| 20260509003503 | 18 | 157 | 4.8 | 12.9 | 0.00 | 0.00 | 0.00 | 59 | 1024.1 |
| 20260509003002 | 17 | 139 | 4.8 | 12.9 | 0.00 | 0.00 | 0.00 | 60 | 1024.1 |
| 20260509002501 | 17 | 194 | 6.4 | 11.3 | 0.00 | 0.00 | 0.00 | 59 | 1024.1 |
| 20260509002001 | 18 | 172 | 4.8 | 12.9 | 0.00 | 0.00 | 0.00 | 60 | 1024.2 |
| 20260509001600 | 17 | 210 | 4.8 | 12.9 | 0.00 | 0.00 | 0.00 | 61 | 1024.2 |
| 20260509001058 | 17 | 203 | 4.8 | 11.3 | 0.00 | 0.00 | 0.00 | 61 | 1024.2 |
| 20260509000558 | 17 | 120 | 3.2 | 11.3 | 0.00 | 0.00 | 0.00 | 62 | 1024.2 |
| 20260509000108 | 17 | 138 | 3.2 | 8.0 | 0.00 | 0.00 | 0.00 | 63 | 1024.2 |
| 20260508235557 | 17 | 154 | 3.2 | 11.3 | 0.00 | 0.00 | 0.00 | 64 | 1024.3 |
| 20260508235056 | 17 | 196 | 3.2 | 11.3 | 0.00 | 0.00 | 0.00 | 64 | 1024.3 |
| 20260508234556 | 17 | 196 | 3.2 | 8.0 | 0.00 | 0.00 | 0.00 | 65 | 1024.3 |
| 20260508234051 | 16 | 221 | 3.2 | 8.0 | 0.00 | 0.00 | 0.00 | 66 | 1024.3 |
| 20260508233550 | 16 | 207 | 3.2 | 6.4 | 0.00 | 0.00 | 0.00 | 67 | 1024.3 |
| 20260508233050 | 16 | 281 | 1.6 | 11.3 | 0.00 | 0.00 | 0.00 | 67 | 1024.3 |
| 20260508232547 | 16 | 250 | 4.8 | 11.3 | 0.00 | 0.00 | 0.00 | 67 | 1024.2 |
| 20260508232046 | 16 | 275 | 3.2 | 11.3 | 0.00 | 0.00 | 0.00 | 67 | 1024.2 |
| 20260508231550 | 16 | 256 | 3.2 | 11.3 | 0.00 | 0.00 | 0.00 | 68 | 1024.2 |
| 20260508231045 | 15 | 259 | 4.8 | 11.3 | 0.00 | 0.00 | 0.00 | 67 | 1024.2 |
| 20260508230544 | 15 | 229 | 4.8 | 8.0 | 0.00 | 0.00 | 0.00 | 68 | 1024.2 |
| 20260508230043 | 15 | 246 | 4.8 | 12.9 | 0.00 | 0.00 | 0.00 | 68 | 1024.2 |
| 20260508225542 | 15 | 268 | 4.8 | 12.9 | 0.00 | 0.00 | 0.00 | 68 | 1024.3 |
| 20260508225041 | 15 | 244 | 3.2 | 8.0 | 0.00 | 0.00 | 0.00 | 69 | 1024.2 |
| 20260508224540 | 15 | 236 | 4.8 | 8.0 | 0.00 | 0.00 | 0.00 | 70 | 1024.2 |
| 20260508224037 | 15 | 285 | 4.8 | 11.3 | 0.00 | 0.00 | 0.00 | 71 | 1024.1 |
| 20260508223537 | 14 | 260 | 4.8 | 11.3 | 0.00 | 0.00 | 0.00 | 71 | 1024.1 |
| 20260508223037 | 14 | 304 | 4.8 | 9.7 | 0.00 | 0.00 | 0.00 | 72 | 1024.1 |
| 20260508222533 | 13 | 272 | 4.8 | 9.7 | 0.00 | 0.00 | 0.00 | 72 | 1024.0 |
| 20260508222032 | 13 | 254 | 3.2 | 9.7 | 0.00 | 0.00 | 0.00 | 74 | 1024.0 |
| 20260508221536 | 13 | 266 | 3.2 | 9.7 | 0.00 | 0.00 | 0.00 | 74 | 1023.9 |
| 20260508221033 | 13 | 268 | 3.2 | 6.4 | 0.00 | 0.00 | 0.00 | 74 | 1023.9 |
| 20260508220532 | 12 | 299 | 3.2 | 8.0 | 0.00 | 0.00 | 0.00 | 74 | 1023.9 |
| 20260508220036 | 12 | 272 | 3.2 | 6.4 | 0.00 | 0.00 | 0.00 | 75 | 1023.7 |
| 20260508215529 | 12 | 280 | 3.2 | 6.4 | 0.00 | 0.00 | 0.00 | 75 | 1023.7 |
| 20260508215029 | 12 | 315 | 3.2 | 6.4 | 0.00 | 0.00 | 0.00 | 76 | 1023.7 |
| 20260508214528 | 12 | 280 | 3.2 | 6.4 | 0.00 | 0.00 | 0.00 | 76 | 1023.7 |
| 20260508214027 | 12 | 298 | 3.2 | 6.4 | 0.00 | 0.00 | 0.00 | 76 | 1023.6 |
| 20260508213526 | 11 | 293 | 3.2 | 6.4 | 0.00 | 0.00 | 0.00 | 77 | 1023.5 |
| 20260508213033 | 11 | 286 | 3.2 | 6.4 | 0.00 | 0.00 | 0.00 | 77 | 1023.5 |
| 20260508212526 | 11 | 302 | 3.2 | 6.4 | 0.00 | 0.00 | 0.00 | 77 | 1023.5 |
| 20260508212028 | 11 | 306 | 3.2 | 6.4 | 0.00 | 0.00 | 0.00 | 77 | 1023.4 |
| 20260508211526 | 11 | 315 | 3.2 | 8.0 | 0.00 | 0.00 | 0.00 | 77 | 1023.3 |
| 20260508211024 | 11 | 311 | 3.2 | 6.4 | 0.00 | 0.00 | 0.00 | 77 | 1023.2 |
| 20260508210523 | 11 | 296 | 3.2 | 4.8 | 0.00 | 0.00 | 0.00 | 77 | 1023.2 |
| 20260508210022 | 11 | 263 | 1.6 | 4.8 | 0.00 | 0.00 | 0.00 | 77 | 1023.1 |
| 20260508205521 | 11 | 284 | 1.6 | 4.8 | 0.00 | 0.00 | 0.00 | 77 | 1023.0 |
| 20260508205022 | 11 | 286 | 1.6 | 4.8 | 0.00 | 0.00 | 0.00 | 79 | 1022.9 |
| 20260508204521 | 11 | 286 | 1.6 | 4.8 | 0.00 | 0.00 | 0.00 | 79 | 1022.8 |
| 20260508204017 | 11 | 286 | 1.6 | 4.8 | 0.00 | 0.00 | 0.00 | 79 | 1022.8 |
| 20260508203517 | 11 | 214 | 1.6 | 3.2 | 0.00 | 0.00 | 0.00 | 79 | 1022.8 |
| 20260508203017 | 11 | 213 | 0.0 | 3.2 | 0.00 | 0.00 | 0.00 | 78 | 1022.7 |
| 20260508202515 | 11 | 213 | 0.0 | 3.2 | 0.00 | 0.00 | 0.00 | 77 | 1022.7 |
| 20260508202015 | 11 | 213 | 0.0 | 3.2 | 0.00 | 0.00 | 0.00 | 77 | 1022.6 |
| 20260508201516 | 12 | 213 | 0.0 | 3.2 | 0.00 | 0.00 | 0.00 | 77 | 1022.6 |
| 20260508201014 | 11 | 213 | 0.0 | 3.2 | 0.00 | 0.00 | 0.00 | 77 | 1022.5 |
| 20260508200515 | 11 | 213 | 0.0 | 1.6 | 0.00 | 0.00 | 0.00 | 77 | 1022.5 |
| 20260508200013 | 12 | 213 | 0.0 | 1.6 | 0.00 | 0.00 | 0.00 | 76 | 1022.4 |
| 20260508195513 | 12 | 213 | 0.0 | 1.6 | 0.00 | 0.00 | 0.00 | 76 | 1022.4 |
| 20260508195011 | 12 | 213 | 0.0 | 1.6 | 0.00 | 0.00 | 0.00 | 76 | 1022.3 |
| 20260508194512 | 12 | 213 | 0.0 | 1.6 | 0.00 | 0.00 | 0.00 | 76 | 1022.2 |
| 20260508194009 | 12 | 213 | 0.0 | 4.8 | 0.00 | 0.00 | 0.00 | 75 | 1022.1 |
| 20260508193508 | 12 | 213 | 0.0 | 4.8 | 0.00 | 0.00 | 0.00 | 75 | 1022.0 |
| 20260508193008 | 12 | 213 | 0.0 | 4.8 | 0.00 | 0.00 | 0.00 | 75 | 1022.0 |
| 20260508192508 | 12 | 270 | 1.6 | 3.2 | 0.00 | 0.00 | 0.00 | 74 | 1021.9 |
| 20260508192010 | 12 | 271 | 0.0 | 3.2 | 0.00 | 0.00 | 0.00 | 74 | 1021.9 |
| 20260508191507 | 12 | 271 | 0.0 | 4.8 | 0.00 | 0.00 | 0.00 | 74 | 1021.9 |
| 20260508191006 | 12 | 273 | 1.6 | 4.8 | 0.00 | 0.00 | 0.00 | 74 | 1021.9 |
| 20260508190506 | 12 | 273 | 1.6 | 4.8 | 0.00 | 0.00 | 0.00 | 74 | 1021.8 |
| 20260508190006 | 12 | 276 | 1.6 | 3.2 | 0.00 | 0.00 | 0.00 | 74 | 1021.8 |
| 20260508185505 | 12 | 276 | 1.6 | 3.2 | 0.00 | 0.00 | 0.00 | 74 | 1021.8 |
| 20260508185005 | 12 | 276 | 1.6 | 3.2 | 0.00 | 0.00 | 0.00 | 73 | 1021.8 |
| 20260508184504 | 12 | 276 | 1.6 | 4.8 | 0.00 | 0.00 | 0.00 | 73 | 1021.7 |
| 20260508184003 | 12 | 278 | 1.6 | 6.4 | 0.00 | 0.00 | 0.00 | 73 | 1021.7 |
| 20260508183503 | 12 | 290 | 3.2 | 6.4 | 0.00 | 0.00 | 0.00 | 73 | 1021.7 |
| 20260508183004 | 12 | 280 | 3.2 | 6.4 | 0.00 | 0.00 | 0.00 | 73 | 1021.7 |
| 20260508182504 | 12 | 258 | 3.2 | 6.4 | 0.00 | 0.00 | 0.00 | 73 | 1021.7 |
| 20260508182003 | 12 | 286 | 3.2 | 6.4 | 0.00 | 0.00 | 0.00 | 73 | 1021.7 |
| 20260508181506 | 12 | 286 | 3.2 | 4.8 | 0.00 | 0.00 | 0.00 | 73 | 1021.7 |
| 20260508181002 | 12 | 287 | 1.6 | 4.8 | 0.00 | 0.00 | 0.00 | 72 | 1021.7 |
| 20260508180503 | 12 | 287 | 1.6 | 4.8 | 0.00 | 0.00 | 0.00 | 72 | 1021.6 |
| 20260508180005 | 12 | 287 | 1.6 | 6.4 | 0.00 | 0.00 | 0.00 | 72 | 1021.5 |
| 20260508175501 | 12 | 287 | 1.6 | 6.4 | 0.00 | 0.00 | 0.00 | 71 | 1021.6 |
| 20260508175101 | 12 | 287 | 3.2 | 4.8 | 0.00 | 0.00 | 0.00 | 71 | 1021.6 |
| 20260508174609 | 12 | 288 | 3.2 | 6.4 | 0.00 | 0.00 | 0.00 | 71 | 1021.5 |
| 20260508174101 | 12 | 283 | 3.2 | 8.0 | 0.00 | 0.00 | 0.00 | 71 | 1021.5 |
| 20260508173559 | 12 | 279 | 4.8 | 8.0 | 0.00 | 0.00 | 0.00 | 72 | 1021.4 |
| 20260508173058 | 12 | 284 | 3.2 | 6.4 | 0.00 | 0.00 | 0.00 | 72 | 1021.4 |
| 20260508172558 | 12 | 275 | 3.2 | 6.4 | 0.00 | 0.00 | 0.00 | 72 | 1021.5 |
| 20260508172058 | 12 | 273 | 3.2 | 6.4 | 0.00 | 0.00 | 0.00 | 73 | 1021.4 |
| 20260508171558 | 12 | 279 | 3.2 | 6.4 | 0.00 | 0.00 | 0.00 | 74 | 1021.4 |
| 20260508171057 | 12 | 280 | 3.2 | 4.8 | 0.00 | 0.00 | 0.00 | 73 | 1021.4 |
| 20260508170557 | 12 | 290 | 1.6 | 6.4 | 0.00 | 0.00 | 0.00 | 73 | 1021.4 |
| 20260508170058 | 12 | 277 | 1.6 | 6.4 | 0.00 | 0.00 | 0.00 | 72 | 1021.3 |
| 20260508165556 | 12 | 248 | 1.6 | 4.8 | 0.00 | 0.00 | 0.00 | 71 | 1021.3 |
| 20260508165056 | 12 | 243 | 3.2 | 6.4 | 0.00 | 0.00 | 0.00 | 70 | 1021.3 |
| 20260508164558 | 12 | 286 | 3.2 | 6.4 | 0.00 | 0.00 | 0.00 | 70 | 1021.2 |
| 20260508164056 | 12 | 265 | 3.2 | 8.0 | 0.00 | 0.00 | 0.00 | 70 | 1021.4 |
| 20260508163600 | 12 | 269 | 3.2 | 8.0 | 0.00 | 0.00 | 0.00 | 70 | 1021.4 |
| 20260508163055 | 12 | 279 | 4.8 | 9.7 | 0.00 | 0.00 | 0.00 | 71 | 1021.4 |
| 20260508162556 | 12 | 285 | 3.2 | 8.0 | 0.00 | 0.00 | 0.00 | 71 | 1021.4 |
| 20260508162055 | 12 | 277 | 3.2 | 6.4 | 0.00 | 0.00 | 0.00 | 71 | 1021.4 |
| 20260508161554 | 12 | 248 | 4.8 | 6.4 | 0.00 | 0.00 | 0.00 | 72 | 1021.4 |
| 20260508161054 | 12 | 281 | 3.2 | 6.4 | 0.00 | 0.00 | 0.00 | 72 | 1021.4 |
| 20260508160552 | 12 | 309 | 3.2 | 6.4 | 0.00 | 0.00 | 0.00 | 71 | 1021.4 |
| 20260508160052 | 12 | 317 | 3.2 | 6.4 | 0.00 | 0.00 | 0.00 | 71 | 1021.4 |
| 20260508155551 | 12 | 300 | 3.2 | 6.4 | 0.00 | 0.00 | 0.00 | 70 | 1021.3 |
| 20260508155050 | 12 | 309 | 3.2 | 6.4 | 0.00 | 0.00 | 0.00 | 70 | 1021.3 |
| 20260508154554 | 13 | 294 | 3.2 | 6.4 | 0.00 | 0.00 | 0.00 | 69 | 1021.3 |
| 20260508154051 | 13 | 277 | 3.2 | 9.7 | 0.00 | 0.00 | 0.00 | 68 | 1021.3 |
| 20260508153547 | 13 | 307 | 4.8 | 8.0 | 0.00 | 0.00 | 0.00 | 68 | 1021.3 |
| 20260508153047 | 13 | 283 | 4.8 | 11.3 | 0.00 | 0.00 | 0.00 | 68 | 1021.2 |
| 20260508152546 | 13 | 282 | 4.8 | 11.3 | 0.00 | 0.00 | 0.00 | 68 | 1021.3 |
| 20260508152046 | 13 | 302 | 3.2 | 6.4 | 0.00 | 0.00 | 0.00 | 68 | 1021.2 |
| 20260508151546 | 13 | 283 | 3.2 | 6.4 | 0.00 | 0.00 | 0.00 | 68 | 1021.3 |
| 20260508151047 | 13 | 282 | 1.6 | 4.8 | 0.00 | 0.00 | 0.00 | 68 | 1021.3 |
| 20260508150545 | 13 | 267 | 1.6 | 4.8 | 0.00 | 0.00 | 0.00 | 68 | 1021.3 |
| 20260508150045 | 13 | 264 | 0.0 | 3.2 | 0.00 | 0.00 | 0.00 | 68 | 1021.3 |
| 20260508145545 | 13 | 264 | 1.6 | 3.2 | 0.00 | 0.00 | 0.00 | 68 | 1021.3 |
| 20260508145047 | 13 | 264 | 1.6 | 4.8 | 0.00 | 0.00 | 0.00 | 67 | 1021.3 |
| 20260508144544 | 13 | 264 | 1.6 | 4.8 | 0.00 | 0.00 | 0.00 | 67 | 1021.2 |
| 20260508144044 | 13 | 256 | 1.6 | 6.4 | 0.00 | 0.00 | 0.00 | 67 | 1021.2 |
| 20260508143545 | 13 | 298 | 3.2 | 6.4 | 0.00 | 0.00 | 0.00 | 67 | 1021.1 |
| 20260508143043 | 13 | 236 | 1.6 | 8.0 | 0.00 | 0.00 | 0.00 | 67 | 1021.1 |
| 20260508142542 | 13 | 267 | 3.2 | 11.3 | 0.00 | 0.00 | 0.00 | 68 | 1021.1 |
| 20260508142042 | 13 | 249 | 3.2 | 11.3 | 0.00 | 0.00 | 0.00 | 68 | 1021.1 |
| 20260508141549 | 13 | 260 | 3.2 | 8.0 | 0.00 | 0.00 | 0.00 | 68 | 1021.1 |
| 20260508141040 | 13 | 259 | 3.2 | 8.0 | 0.00 | 0.00 | 0.00 | 68 | 1021.0 |
| 20260508140543 | 13 | 267 | 1.6 | 8.0 | 0.00 | 0.00 | 0.00 | 68 | 1021.0 |
| 20260508140049 | 13 | 286 | 3.2 | 6.4 | 0.00 | 0.00 | 0.00 | 69 | 1021.0 |
| 20260508135541 | 13 | 287 | 3.2 | 6.4 | 0.00 | 0.00 | 0.00 | 69 | 1021.0 |
| 20260508135038 | 13 | 263 | 1.6 | 6.4 | 0.00 | 0.00 | 0.00 | 69 | 1021.0 |
| 20260508134538 | 13 | 274 | 1.6 | 6.4 | 0.00 | 0.00 | 0.00 | 70 | 1021.0 |
| 20260508134038 | 13 | 277 | 3.2 | 8.0 | 0.00 | 0.00 | 0.00 | 70 | 1021.0 |
| 20260508133538 | 13 | 266 | 3.2 | 9.7 | 0.00 | 0.00 | 0.00 | 70 | 1020.9 |
| 20260508133038 | 13 | 275 | 3.2 | 9.7 | 0.00 | 0.00 | 0.00 | 69 | 1021.0 |
| 20260508132538 | 13 | 240 | 1.6 | 9.7 | 0.00 | 0.00 | 0.00 | 68 | 1021.0 |
| 20260508132037 | 13 | 306 | 1.6 | 6.4 | 0.00 | 0.00 | 0.00 | 68 | 1020.9 |
| 20260508131537 | 13 | 216 | 1.6 | 6.4 | 0.00 | 0.00 | 0.00 | 68 | 1020.9 |
| 20260508131038 | 13 | 205 | 1.6 | 8.0 | 0.00 | 0.00 | 0.00 | 68 | 1021.0 |
| 20260508130537 | 13 | 196 | 3.2 | 8.0 | 0.00 | 0.00 | 0.00 | 69 | 1020.9 |
| 20260508130039 | 13 | 289 | 1.6 | 6.4 | 0.00 | 0.00 | 0.00 | 70 | 1020.9 |
| 20260508125537 | 13 | 226 | 1.6 | 4.8 | 0.00 | 0.00 | 0.00 | 69 | 1021.0 |
| 20260508125037 | 13 | 267 | 1.6 | 4.8 | 0.00 | 0.00 | 0.00 | 69 | 1021.0 |
| 20260508124536 | 13 | 273 | 1.6 | 6.4 | 0.00 | 0.00 | 0.00 | 68 | 1020.9 |
| 20260508124035 | 13 | 237 | 1.6 | 9.7 | 0.00 | 0.00 | 0.00 | 67 | 1021.0 |
| 20260508123538 | 13 | 257 | 3.2 | 9.7 | 0.00 | 0.00 | 0.00 | 67 | 1021.0 |
| 20260508123036 | 13 | 277 | 3.2 | 9.7 | 0.00 | 0.00 | 0.00 | 67 | 1021.0 |
| 20260508122534 | 13 | 267 | 3.2 | 8.0 | 0.00 | 0.00 | 0.00 | 66 | 1021.0 |
| 20260508122037 | 13 | 267 | 3.2 | 11.3 | 0.00 | 0.00 | 0.00 | 66 | 1020.9 |
| 20260508121535 | 13 | 279 | 3.2 | 6.4 | 0.00 | 0.00 | 0.00 | 66 | 1021.0 |
| 20260508121034 | 13 | 263 | 1.6 | 6.4 | 0.00 | 0.00 | 0.00 | 66 | 1021.0 |
| 20260508120535 | 13 | 262 | 3.2 | 6.4 | 0.00 | 0.00 | 0.00 | 66 | 1021.0 |
| 20260508120038 | 13 | 271 | 3.2 | 6.4 | 0.00 | 0.00 | 0.00 | 65 | 1021.0 |
| 20260508115533 | 13 | 272 | 1.6 | 8.0 | 0.00 | 0.00 | 0.00 | 65 | 1021.0 |
| 20260508115034 | 14 | 254 | 3.2 | 8.0 | 0.00 | 0.00 | 0.00 | 64 | 1020.9 |
| 20260508114533 | 14 | 266 | 3.2 | 11.3 | 0.00 | 0.00 | 0.00 | 64 | 1020.9 |
| 20260508114033 | 14 | 262 | 4.8 | 11.3 | 0.00 | 0.00 | 0.00 | 64 | 1020.8 |
| 20260508113533 | 13 | 268 | 4.8 | 11.3 | 0.00 | 0.00 | 0.00 | 66 | 1020.7 |
| 20260508113033 | 14 | 279 | 6.4 | 11.3 | 0.00 | 0.00 | 0.00 | 66 | 1020.7 |
| 20260508112532 | 14 | 231 | 4.8 | 11.3 | 0.00 | 0.00 | 0.00 | 65 | 1020.7 |
| 20260508112032 | 14 | 251 | 4.8 | 11.3 | 0.00 | 0.00 | 0.00 | 65 | 1020.8 |
| 20260508111548 | 14 | 247 | 1.6 | 11.3 | 0.00 | 0.00 | 0.00 | 65 | 1020.9 |
| 20260508111034 | 14 | 234 | 3.2 | 11.3 | 0.00 | 0.00 | 0.00 | 64 | 1020.9 |
| 20260508110535 | 14 | 212 | 1.6 | 8.0 | 0.00 | 0.00 | 0.00 | 64 | 1020.9 |
| 20260508110031 | 14 | 185 | 3.2 | 8.0 | 0.00 | 0.00 | 0.00 | 63 | 1020.8 |
| 20260508105530 | 14 | 171 | 1.6 | 8.0 | 0.00 | 0.00 | 0.00 | 63 | 1020.8 |
| 20260508105028 | 14 | 202 | 3.2 | 8.0 | 0.00 | 0.00 | 0.00 | 63 | 1020.7 |
| 20260508104529 | 14 | 218 | 1.6 | 6.4 | 0.00 | 0.00 | 0.00 | 63 | 1020.6 |
| 20260508104028 | 15 | 159 | 1.6 | 8.0 | 0.00 | 0.00 | 0.00 | 63 | 1020.6 |
| 20260508103528 | 15 | 242 | 1.6 | 8.0 | 0.00 | 0.00 | 0.00 | 63 | 1020.5 |
| 20260508103032 | 15 | 256 | 1.6 | 11.3 | 0.00 | 0.00 | 0.00 | 63 | 1020.4 |
| 20260508102529 | 15 | 180 | 3.2 | 11.3 | 0.00 | 0.00 | 0.00 | 62 | 1020.4 |
| 20260508102027 | 15 | 205 | 3.2 | 11.3 | 0.00 | 0.00 | 0.00 | 62 | 1020.3 |
| 20260508101534 | 15 | 209 | 3.2 | 12.9 | 0.00 | 0.00 | 0.00 | 62 | 1020.4 |
| 20260508101027 | 15 | 157 | 3.2 | 14.5 | 0.00 | 0.00 | 0.00 | 62 | 1020.2 |
| 20260508100525 | 15 | 204 | 1.6 | 6.4 | 0.00 | 0.00 | 0.00 | 61 | 1020.2 |
| 20260508100028 | 15 | 210 | 1.6 | 8.0 | 0.00 | 0.00 | 0.00 | 61 | 1020.1 |
| 20260508095524 | 15 | 225 | 3.2 | 8.0 | 0.00 | 0.00 | 0.00 | 61 | 1020.1 |
| 20260508095023 | 15 | 266 | 3.2 | 16.1 | 0.00 | 0.00 | 0.00 | 60 | 1020.0 |
| 20260508094522 | 15 | 216 | 3.2 | 16.1 | 0.00 | 0.00 | 0.00 | 60 | 1019.9 |
| 20260508094021 | 15 | 187 | 3.2 | 16.1 | 0.00 | 0.00 | 0.00 | 60 | 1019.8 |
| 20260508093521 | 15 | 252 | 1.6 | 14.5 | 0.00 | 0.00 | 0.00 | 60 | 1019.7 |
| 20260508093020 | 15 | 221 | 4.8 | 14.5 | 0.00 | 0.00 | 0.00 | 59 | 1019.7 |